Flag for Mexico Weather past 2 weeks in Ojinaga, Chihuahua, Mexico

Now
79 °F

Sunny.


Feels Like: 78 °F
Forecast: 57 / 85 °F
Wind: 5 mph from Southeast

Location: Marfa Municipal Airport

Current Time: Oct 24, 2014 at 2:48:47 PM

Latest Report: Oct 24, 2014 at 2:35 PM


Visibility: 10 mi

Pressure: 30.27 "Hg

Humidity: 28%

Dew point: 43 °F

Location of OjinagaLocation

Historic Weather in Ojinaga — Graph

°F

Ojinaga temperature yesterday

Maximum temperature yesterday: 77 °F (at 2:15 PM)
Minimum temperature yesterday: 54 °F (at 11:15 PM)
Average temperature yesterday: 63 °F

Past Weeks' High & Low Weather Summary

 TemperatureHumidityPressure
High86 °F (Oct 9, 2:35 PM)100% (Oct 21, 12:55 AM)30.35 "Hg (Oct 21, 12:55 AM)
Low30 °F (Oct 14, 6:35 AM)14% (Oct 17, 5:15 PM)29.87 "Hg (Oct 12, 5:15 PM)
Average61 °F59%30.16 "Hg
* Reported Oct 9 1:15 PM — Oct 24 1:35 PM, Ojinaga, Weather by CustomWeather, © 2014

Note: Actual official high and low records may vary slightly from our data, if they occured in-between our weather recording intervals... More about our weather records

Advertising

Ojinaga weather history for previous 24 hours

 ConditionsComfort  
Time TempWeatherWind HumidityBarometerVisibility
1:35 PM
Oct 24
77 °FSunny.7 mph30%30.28 "Hg10 mi
1:15 PM77 °FSunny.3 mph32%30.29 "Hg10 mi
12:55 PM75 °FSunny.5 mph36%30.31 "Hg10 mi
12:35 PM75 °FSunny.No wind34%30.31 "Hg10 mi
12:15 PM73 °FSunny.5 mph38%30.32 "Hg10 mi
11:55 AM73 °FSunny.3 mph41%30.33 "Hg10 mi
11:35 AM73 °FSunny.3 mph47%30.34 "Hg10 mi
11:15 AM72 °FSunny.7 mph53%30.34 "Hg10 mi
10:55 AM70 °FSunny.5 mph57%30.35 "Hg10 mi
10:35 AM70 °FSunny.6 mph60%30.35 "Hg10 mi
10:15 AM66 °FSunny.5 mph73%30.35 "Hg10 mi
9:55 AM66 °FSunny.No wind73%30.35 "Hg10 mi
9:35 AM64 °FSunny.3 mph78%30.35 "Hg10 mi
9:15 AM63 °FSunny.No wind83%30.34 "Hg10 mi
8:55 AM61 °FSunny.No wind88%30.34 "Hg10 mi
8:35 AM57 °FSunny.No wind94%30.33 "Hg10 mi
8:15 AM55 °FSunny.No wind94%30.32 "Hg10 mi
7:55 AM52 °FClear.3 mph94%30.31 "Hg10 mi
7:35 AM48 °FClear.5 mph100%30.30 "Hg10 mi
7:15 AM48 °FClear.3 mph94%30.30 "Hg10 mi
6:55 AM48 °FClear.7 mph94%30.29 "Hg10 mi
6:35 AM48 °FClear.6 mph94%30.29 "Hg10 mi
6:15 AM48 °FClear.7 mph94%30.28 "Hg10 mi
5:55 AM48 °FClear.6 mph94%30.28 "Hg10 mi
5:35 AM48 °FClear.5 mph94%30.27 "Hg10 mi
5:15 AM48 °FClear.3 mph94%30.27 "Hg10 mi
4:55 AM48 °FClear.3 mph94%30.27 "Hg10 mi
4:35 AM48 °FClear.5 mph94%30.27 "Hg10 mi
4:15 AM48 °FClear.3 mph94%30.27 "Hg10 mi
3:55 AM48 °FClear.5 mph94%30.26 "Hg10 mi
3:35 AM48 °FClear.3 mph100%30.27 "Hg10 mi
3:15 AM52 °FClear.6 mph88%30.27 "Hg10 mi
2:55 AM50 °FClear.8 mph94%30.27 "Hg10 mi
2:35 AM52 °FClear.3 mph94%30.28 "Hg10 mi
2:15 AM52 °FClear.5 mph94%30.28 "Hg10 mi
1:55 AM52 °FClear.7 mph94%30.28 "Hg10 mi
1:35 AM52 °FClear.8 mph94%30.28 "Hg10 mi
1:15 AM52 °FClear.7 mph94%30.28 "Hg10 mi
12:55 AM52 °FClear.6 mph94%30.27 "Hg10 mi
12:35 AM52 °FClear.5 mph94%30.27 "Hg10 mi
12:15 AM52 °FClear.No wind94%30.27 "Hg10 mi
11:55 PM
Oct 23
54 °FClear.No wind94%30.27 "Hg10 mi
11:35 PM54 °FClear.5 mph94%30.27 "Hg10 mi
11:15 PM54 °FClear.6 mph94%30.27 "Hg10 mi
10:55 PM57 °FClear.3 mph88%30.27 "Hg10 mi
10:35 PM55 °FClear.3 mph88%30.27 "Hg10 mi
10:15 PM55 °FClear.6 mph94%30.27 "Hg10 mi
9:55 PM55 °FClear.8 mph88%30.26 "Hg10 mi
9:35 PM57 °FClear.7 mph88%30.26 "Hg10 mi
9:15 PM57 °FClear.7 mph82%30.26 "Hg10 mi
8:55 PM59 °FClear.3 mph77%30.25 "Hg10 mi
8:35 PM59 °FPassing clouds.No wind77%30.25 "Hg10 mi
8:15 PM61 °FPassing clouds.3 mph72%30.25 "Hg10 mi
7:55 PM61 °FPassing clouds.7 mph77%30.24 "Hg10 mi
7:35 PM61 °FClear.7 mph77%30.24 "Hg10 mi
7:15 PM63 °FSunny.8 mph73%30.23 "Hg10 mi
6:55 PM64 °FSunny.5 mph64%30.23 "Hg10 mi
6:35 PM66 °FSunny.7 mph60%30.22 "Hg10 mi
6:15 PM70 °FSunny.5 mph53%30.21 "Hg10 mi
5:55 PM73 °FSunny.7 mph41%30.21 "Hg10 mi
5:35 PM73 °FSunny.7 mph38%30.21 "Hg10 mi
5:15 PM75 °FSunny.6 mph31%30.20 "Hg10 mi
4:55 PM75 °FSunny.8 mph31%30.20 "Hg10 mi
4:35 PM75 °FSunny.5 mph34%30.20 "Hg10 mi
4:15 PM75 °FSunny.8 mph34%30.20 "Hg10 mi
3:55 PM75 °FSunny.7 mph36%30.20 "Hg10 mi
3:35 PM75 °FSunny.6 mph36%30.20 "Hg10 mi
2:55 PM75 °FScattered clouds.12 mph39%30.21 "Hg10 mi
2:35 PM77 °FScattered clouds.6 mph36%30.21 "Hg10 mi
2:15 PM77 °FScattered clouds.3 mph39%30.22 "Hg10 mi
Weather by CustomWeather, © 2014

See weather overviewHow to use our weather pages